Date,TemperatureHighF,TemperatureAvgF,TemperatureLowF,DewpointHighF,DewpointAvgF,DewpointLowF,HumidityHigh,HumidityAvg,HumidityLow,PressureMaxIn,PressureMinIn,WindSpeedMaxMPH,WindSpeedAvgMPH,GustSpeedMaxMPH,PrecipitationSumIn
2013-1-1,44.5,37.4,32.9,32.3,29.6,24.4,87,74,52,29.55,29.18,21,5,40,0.00
2013-1-2,43.3,37.1,30.7,28.9,26.7,23.9,86,67,48,29.53,29.23,15,4,26,0.00
2013-1-3,36.7,31.7,28.0,29.0,26.6,23.6,88,81,72,29.57,29.49,13,3,19,0.00
2013-1-4,31.1,27.7,24.3,27.0,24.5,21.1,90,87,85,29.81,29.57,6,1,9,0.00
2013-1-5,29.1,27.2,25.3,25.2,23.8,22.0,90,87,84,29.74,29.30,7,1,9,0.00
2013-1-6,28.9,26.0,22.7,25.5,23.4,20.2,92,90,85,29.36,29.00,9,1,11,0.00
2013-1-7,29.9,22.9,19.3,25.7,20.5,17.3,92,90,84,29.37,29.03,12,1,15,0.00
2013-1-8,27.6,21.7,12.8,23.7,18.6,10.5,92,88,85,29.99,29.37,6,0,8,0.00
2013-1-9,16.6,13.7,9.6,14.3,11.8,7.7,93,92,92,30.08,29.92,6,0,7,0.00
2013-1-10,23.7,20.8,16.1,21.7,19.0,14.2,94,93,92,30.14,29.93,6,1,8,0.00
2013-1-11,25.9,23.5,20.3,24.4,21.8,18.8,95,93,92,30.13,29.93,7,1,9,0.00
2013-1-12,39.1,30.7,23.9,36.8,29.0,22.1,95,93,90,30.12,29.81,15,3,21,0.00
2013-1-13,38.7,35.8,34.8,36.7,34.4,33.1,96,95,91,29.88,29.60,13,2,22,0.49
2013-1-14,49.7,40.6,33.7,39.2,32.4,20.3,97,74,46,29.92,29.45,24,8,37,0.09
2013-1-15,34.0,26.0,19.0,20.8,16.3,12.9,82,67,49,30.21,29.92,16,2,23,0.00
2013-1-16,24.0,21.7,20.2,19.5,18.4,16.7,92,87,77,30.17,29.66,8,1,10,0.00
2013-1-17,21.2,17.9,14.5,19.0,14.9,9.2,92,88,79,29.94,29.59,3,0,6,0.00
2013-1-18,14.8,8.5,0.2,10.4,5.7,-2.9,91,88,80,30.21,29.94,5,0,6,0.00
2013-1-19,22.8,17.1,11.4,19.1,14.3,8.6,90,88,86,30.21,29.95,6,1,8,0.00
2013-1-20,26.5,22.9,13.7,23.3,19.6,11.6,91,87,82,29.97,29.83,11,2,14,0.00
2013-1-21,26.7,18.8,10.9,24.4,16.7,8.9,93,91,90,29.90,29.71,8,1,12,0.00
2013-1-22,30.2,28.1,25.9,26.7,25.0,22.8,91,88,86,29.71,29.42,5,1,6,0.00
2013-1-23,31.6,25.9,16.6,28.1,23.2,14.4,92,89,87,29.42,29.30,6,1,8,0.00
2013-1-24,41.2,28.8,16.9,33.2,24.9,14.6,94,86,66,29.49,29.36,9,1,13,0.04
2013-1-25,37.7,16.9,-4.8,29.9,10.6,-9.1,90,76,63,29.62,29.33,15,4,21,0.01
2013-1-26,5.1,-5.6,-11.9,-0.2,-9.9,-16.3,85,81,74,29.88,29.63,4,0,6,0.00
2013-1-27,-0.4,-11.2,-17.6,-6.2,-15.7,-21.6,84,80,72,30.13,29.88,7,1,10,0.00
2013-1-28,6.9,-5.7,-18.5,1.7,-10.3,-22.9,85,80,71,30.18,29.85,11,1,16,0.00
2013-1-29,13.2,8.1,4.6,8.5,3.5,-0.0,86,81,77,29.85,29.76,11,5,14,0.00
2013-1-30,28.7,19.3,12.8,26.3,15.9,7.0,92,86,76,29.85,29.65,11,2,14,0.01
2013-1-31,34.1,30.4,27.5,32.6,28.9,25.5,96,94,92,29.93,29.67,7,1,10,0.00
2013-2-1,30.4,26.2,24.0,29.1,25.1,23.0,96,96,95,29.97,29.68,8,2,12,0.00
2013-2-2,31.5,27.1,23.6,28.9,25.4,21.8,95,93,91,29.68,29.37,7,1,9,0.01
2013-2-3,34.6,29.3,24.9,32.8,27.6,23.1,94,93,91,29.46,29.24,5,0,6,0.01
2013-2-4,39.4,33.5,28.1,31.7,29.2,25.3,95,84,69,29.62,29.46,12,2,16,0.05
2013-2-5,30.7,23.9,15.7,27.1,20.9,13.1,92,88,82,29.62,29.48,4,0,6,0.01
2013-2-6,29.0,25.4,17.3,26.9,23.7,15.0,94,93,91,29.61,29.45,0,0,3,0.00
2013-2-7,27.0,24.1,20.6,25.4,22.6,18.9,95,94,91,29.59,29.25,10,0,13,0.00
2013-2-8,31.9,28.8,24.8,30.4,27.4,23.0,96,95,93,29.77,29.36,8,1,10,0.00
2013-2-9,39.0,30.6,26.1,31.8,27.6,24.8,96,89,74,29.71,28.97,15,3,20,0.10
2013-2-10,39.7,34.7,30.5,33.9,30.8,27.8,94,86,71,29.48,28.95,19,4,30,0.35
2013-2-11,31.6,23.0,9.6,30.0,19.7,7.0,95,87,69,29.75,29.48,13,4,16,0.00
2013-2-12,25.7,20.5,12.0,22.6,18.2,9.4,93,91,89,29.76,29.72,6,1,8,0.00
2013-2-13,30.8,25.8,22.7,26.3,23.4,20.8,94,91,83,29.81,29.63,10,2,13,0.00
2013-2-14,33.6,28.6,23.8,29.2,25.1,21.7,94,87,77,29.65,29.21,14,4,18,0.04
2013-2-15,31.4,28.4,24.2,28.9,26.4,21.3,94,92,88,29.91,29.48,11,2,17,0.00
2013-2-16,25.3,18.8,5.6,21.7,14.6,2.4,92,84,72,30.00,29.77,15,4,19,0.01
2013-2-17,25.2,20.9,16.1,23.3,18.8,13.5,93,92,89,29.78,29.57,11,5,16,0.00
2013-2-18,18.0,12.7,1.9,13.8,7.8,-1.7,90,81,72,29.88,29.78,10,1,14,0.01
2013-2-19,14.8,8.6,1.8,12.2,4.9,-1.9,90,85,78,29.84,29.28,10,3,16,0.00
2013-2-20,26.4,18.6,14.3,20.1,15.0,11.2,90,86,77,29.28,29.06,11,3,15,0.00
2013-2-21,27.7,22.4,13.7,23.1,19.1,11.2,92,87,77,29.24,29.09,6,1,8,0.00
2013-2-22,27.5,23.6,12.3,23.4,19.4,7.5,93,84,72,29.42,29.18,15,4,21,0.00
2013-2-23,23.6,20.2,15.4,21.1,16.4,10.9,91,85,76,29.38,29.15,8,2,10,0.00
2013-2-24,29.1,24.0,16.4,25.6,21.6,14.3,93,90,85,29.62,29.32,7,1,8,0.00
2013-2-25,30.4,22.1,13.5,25.6,19.4,11.5,94,90,81,29.66,29.55,7,1,12,0.00
2013-2-26,37.2,26.7,18.9,26.4,21.3,13.8,90,80,63,29.56,29.28,10,1,13,0.08
2013-2-27,33.8,24.2,13.2,23.4,18.4,9.7,87,78,63,29.28,29.19,8,1,10,0.02
2013-2-28,35.5,27.2,21.6,26.7,22.3,17.8,88,82,67,29.37,29.28,8,1,10,0.02
2013-3-1,34.2,26.2,19.1,30.1,23.0,16.9,92,88,83,29.92,29.37,5,1,7,0.01
2013-3-2,34.4,24.4,15.9,28.3,21.2,12.9,93,88,78,30.08,29.92,7,1,8,0.00
2013-3-3,31.2,19.9,10.1,23.8,15.8,7.5,92,85,72,30.43,30.07,7,1,9,0.00
2013-3-4,36.4,27.2,19.3,26.4,20.9,15.5,88,78,62,30.46,30.29,7,1,8,0.00
2013-3-5,37.7,27.2,17.6,28.8,21.8,14.5,89,80,66,30.29,29.96,6,1,7,0.00
2013-3-6,35.9,26.4,19.8,27.5,21.8,17.1,91,83,68,29.97,29.83,7,1,8,0.00
2013-3-7,43.2,30.4,22.3,27.4,23.8,18.3,88,77,50,29.83,29.46,24,3,35,0.00
2013-3-8,42.4,38.6,31.9,30.4,26.5,21.4,76,62,49,29.73,29.48,19,5,30,0.00
2013-3-9,42.2,37.2,33.4,30.0,27.4,24.4,86,68,56,30.08,29.73,10,2,14,0.00
2013-3-10,33.9,31.7,30.3,30.5,29.0,27.5,93,90,85,30.21,30.07,6,1,8,0.12
2013-3-11,36.2,29.0,25.1,29.5,25.4,16.8,95,87,62,30.30,30.18,12,1,16,0.18
2013-3-12,34.7,20.7,5.9,20.2,10.6,2.8,88,67,37,30.19,29.96,16,2,20,0.03
2013-3-13,30.9,15.5,2.9,18.1,6.9,-1.4,84,70,46,29.96,29.77,6,1,9,0.00
2013-3-14,28.2,19.5,10.7,14.0,8.3,3.7,74,61,54,29.86,29.75,11,3,14,0.00
2013-3-15,32.8,15.4,1.9,14.7,6.3,-1.9,85,69,46,29.84,29.70,5,0,6,0.00
2013-3-16,31.4,14.7,0.7,15.2,6.1,-3.3,84,70,49,30.08,29.81,5,0,6,0.00
2013-3-17,28.4,15.0,2.2,15.4,6.0,-2.0,83,68,49,30.13,30.03,7,1,9,0.00
2013-3-18,29.1,14.5,2.1,14.8,6.0,-2.4,83,70,50,30.03,29.86,6,1,8,0.00
2013-3-19,27.7,14.7,-0.9,9.9,3.2,-4.8,84,62,38,29.90,29.84,15,3,20,0.00
2013-3-20,23.7,11.9,-2.9,5.9,0.3,-9.2,77,60,44,29.96,29.85,8,2,11,0.00
2013-3-21,26.7,13.8,-2.3,13.3,4.2,-7.1,81,66,50,30.18,29.95,8,1,9,0.00
2013-3-22,35.8,27.5,21.2,27.9,21.3,11.2,87,77,62,30.10,29.77,10,3,15,0.00
2013-3-23,33.1,29.4,23.6,29.0,25.3,18.3,91,85,79,29.85,29.74,14,5,18,0.05
2013-3-24,25.0,21.3,16.2,22.1,18.1,13.5,92,87,80,29.84,29.55,8,3,9,0.00
2013-3-25,24.3,18.3,7.5,22.2,16.0,4.2,92,91,87,29.69,29.40,11,2,14,0.00
2013-3-26,20.2,8.7,-0.9,9.9,2.7,-6.0,88,77,61,30.16,29.69,7,0,8,0.04
2013-3-27,19.4,6.4,-9.6,9.9,0.6,-13.6,86,77,65,30.25,30.16,8,2,10,0.00
2013-3-28,27.7,19.6,12.1,23.1,15.0,7.5,89,82,73,30.20,29.93,10,3,12,0.00
2013-3-29,36.7,28.5,22.7,31.4,25.1,20.3,92,87,79,29.95,29.86,8,2,12,0.09
2013-3-30,42.2,33.3,23.5,33.1,29.0,21.5,93,85,68,30.22,29.95,6,1,7,0.04
2013-3-31,44.8,33.3,23.5,34.0,29.2,21.6,94,85,62,30.24,30.09,7,1,9,0.00
2013-4-1,42.8,34.1,28.7,30.4,26.8,24.2,90,76,55,30.09,29.94,6,2,9,0.00
2013-4-2,43.1,31.5,18.3,27.7,23.0,14.9,88,72,50,30.15,29.98,8,1,10,0.00
2013-4-3,45.1,35.5,27.3,27.3,24.1,20.6,79,65,41,30.23,30.15,8,2,10,0.00
2013-4-4,42.3,29.5,17.2,23.8,17.8,12.0,86,65,35,30.19,29.74,10,2,13,0.00
2013-4-5,37.0,25.2,11.6,19.3,13.2,6.1,80,62,42,29.74,29.47,8,2,11,0.00
2013-4-6,29.6,23.5,18.3,23.5,19.2,14.5,91,83,61,29.50,29.43,9,3,12,0.06
2013-4-7,26.9,23.0,18.0,23.2,15.0,7.9,91,72,49,29.77,29.50,16,6,21,0.02
2013-4-8,19.7,14.3,3.4,16.7,10.4,-0.6,90,84,76,29.77,29.27,8,2,9,0.00
2013-4-9,24.7,18.4,13.6,15.4,11.8,8.8,89,76,56,29.44,29.08,10,2,13,0.13
2013-4-10,24.1,16.5,7.7,13.0,9.3,3.1,85,73,55,29.94,29.44,12,4,16,0.02
2013-4-11,26.2,13.1,-3.4,11.7,4.6,-7.3,86,70,51,30.08,29.94,12,3,15,0.00
2013-4-12,31.9,15.7,-2.7,10.1,3.2,-7.5,81,60,38,30.11,30.02,10,2,13,0.01
2013-4-13,33.8,18.8,-0.5,14.1,6.1,-6.3,78,59,39,30.39,30.10,11,2,15,0.01
2013-4-14,38.7,24.4,8.5,16.3,11.3,3.1,80,59,36,30.51,30.39,7,1,9,0.00
2013-4-15,39.2,27.0,14.3,17.0,13.5,7.8,78,58,38,30.43,30.27,10,2,14,0.00
2013-4-16,37.2,24.3,9.7,17.6,12.7,4.5,80,63,41,30.27,30.08,10,2,13,0.00
2013-4-17,36.9,24.2,9.0,21.1,13.1,3.1,78,63,48,30.14,30.09,8,2,12,0.00
2013-4-18,40.7,26.4,11.3,22.3,15.5,6.9,83,65,41,30.17,30.09,8,1,10,0.00
2013-4-19,44.4,30.1,13.8,22.5,17.0,9.1,83,61,36,30.31,30.12,8,2,10,0.00
2013-4-20,47.6,33.4,17.3,23.5,19.0,12.4,81,58,35,30.40,30.30,7,2,9,0.00
2013-4-21,43.4,33.8,20.7,27.6,22.0,15.3,80,63,43,30.40,30.33,9,2,12,0.00
2013-4-22,51.1,37.8,22.8,29.9,25.7,19.1,86,64,41,30.50,30.38,10,2,12,0.00
2013-4-23,41.2,36.4,32.7,37.4,31.5,24.9,91,82,68,30.48,30.33,7,1,8,0.11
2013-4-24,42.6,38.0,34.9,36.5,34.3,29.8,94,87,70,30.34,29.82,11,2,15,0.00
2013-4-25,42.9,36.6,30.3,31.5,18.7,9.0,86,52,28,29.83,29.67,24,9,36,0.00
2013-4-26,40.8,31.9,19.3,20.4,13.8,7.7,69,48,34,29.71,29.47,16,3,24,0.00
2013-4-27,43.0,32.6,19.1,20.7,16.2,12.5,80,54,30,29.88,29.49,17,5,25,0.00
2013-4-28,43.0,33.7,22.8,17.4,13.6,8.9,60,44,32,30.14,29.88,14,4,20,0.00
2013-4-29,44.0,33.9,19.7,24.9,19.0,13.9,78,56,36,30.18,30.08,8,1,10,0.00
2013-4-30,41.7,36.5,29.1,32.6,26.9,20.6,86,69,51,30.08,29.81,12,2,16,0.00
2013-5-1,46.6,36.1,23.1,28.3,25.4,20.3,89,67,45,29.81,29.53,12,3,16,0.00
2013-5-2,42.4,37.4,33.2,37.3,32.6,25.6,92,83,64,29.84,29.62,7,2,8,0.08
2013-5-3,44.0,38.2,34.4,38.4,35.0,32.4,93,88,78,29.91,29.78,13,3,18,0.01
2013-5-4,38.2,35.5,32.9,35.9,33.6,31.3,95,93,89,29.94,29.74,7,2,9,0.47
2013-5-5,47.4,39.9,32.6,33.9,27.9,22.0,92,65,40,30.12,29.94,9,3,13,0.00
2013-5-6,47.9,39.4,30.2,30.3,26.4,23.0,80,60,48,30.25,30.12,10,2,13,0.00
2013-5-7,47.9,39.8,30.4,31.8,28.4,23.2,82,65,50,30.28,30.23,7,1,9,0.00
2013-5-8,54.9,42.7,29.5,33.3,29.1,24.3,82,61,39,30.26,30.21,13,3,16,0.00
2013-5-9,53.9,42.3,29.3,34.2,29.4,23.6,82,62,46,30.30,30.23,10,2,14,0.00
2013-5-10,61.9,47.3,29.6,37.5,31.5,25.3,85,58,32,30.24,29.94,8,2,10,0.00
2013-5-11,57.9,50.0,42.3,40.6,36.2,30.9,74,60,47,29.94,29.57,8,2,10,0.00
2013-5-12,53.5,47.0,40.5,44.1,40.7,36.8,89,79,68,29.57,29.46,7,1,9,0.14
2013-5-13,54.6,46.0,37.8,41.2,32.5,18.9,91,64,29,29.46,29.39,13,4,18,0.08
2013-5-14,48.2,39.2,28.1,29.3,23.4,18.2,71,54,41,29.62,29.46,9,2,12,0.00
2013-5-15,51.9,42.7,34.1,31.6,27.3,24.8,72,56,37,29.75,29.62,17,5,23,0.00
2013-5-16,42.7,39.7,36.8,37.5,33.1,26.6,92,78,54,29.73,29.45,10,4,14,0.01
2013-5-17,38.6,35.6,31.5,36.4,33.9,30.0,94,93,92,29.54,29.39,7,1,9,0.41
2013-5-18,38.7,32.2,26.5,30.2,26.6,23.4,94,81,58,30.17,29.54,10,1,13,0.42
2013-5-19,47.7,36.6,21.8,24.9,21.6,17.7,85,57,36,30.60,30.17,10,3,13,0.00
2013-5-20,52.9,41.0,26.0,27.7,23.6,19.0,78,52,32,30.64,30.53,14,2,22,0.00
2013-5-21,52.4,42.9,27.8,33.9,28.2,20.5,78,57,43,30.56,30.27,10,3,14,0.00
2013-5-22,56.8,45.4,32.7,39.1,33.3,26.4,81,64,44,30.27,30.11,9,2,12,0.00
2013-5-23,56.2,48.6,40.9,43.9,40.6,35.8,90,75,59,30.16,30.09,8,1,10,0.02
2013-5-24,67.3,52.5,35.7,42.8,38.2,32.3,89,62,36,30.10,29.96,9,2,14,0.00
2013-5-25,69.4,55.1,36.0,40.0,33.5,22.8,80,49,19,29.99,29.86,13,3,16,0.00
2013-5-26,61.8,51.1,33.8,40.6,34.8,24.5,74,55,38,29.93,29.86,9,2,12,0.00
2013-5-27,74.8,60.6,44.4,43.6,40.9,38.1,79,52,30,29.91,29.75,9,2,12,0.00
2013-5-28,76.7,59.6,38.1,47.3,41.4,32.5,82,54,30,29.78,29.64,11,2,15,0.00
2013-5-29,79.3,63.6,44.8,45.8,41.6,37.7,77,48,24,29.74,29.64,7,2,11,0.00
2013-5-30,69.3,58.6,45.2,44.9,41.9,37.5,76,55,37,30.01,29.74,8,2,12,0.00
2013-5-31,61.3,51.4,40.7,47.2,42.6,35.8,85,72,59,30.16,30.01,9,2,13,0.00
2013-6-1,55.9,50.2,45.5,45.7,43.5,41.8,89,78,68,30.22,30.16,7,2,9,0.00
2013-6-2,57.3,49.6,45.4,47.7,44.5,41.8,92,83,68,30.24,30.08,8,2,11,0.38
2013-6-3,55.7,50.0,42.5,46.6,43.2,38.9,88,78,66,30.08,29.75,6,1,9,0.04
2013-6-4,59.5,51.4,43.5,44.6,40.0,33.1,87,67,44,29.83,29.69,14,3,20,0.00
2013-6-5,59.2,50.1,34.8,41.2,36.7,29.6,82,61,46,29.96,29.83,9,2,13,0.00
2013-6-6,67.9,53.5,34.4,40.9,36.4,29.2,82,55,34,29.95,29.69,10,2,15,0.00
2013-6-7,75.3,58.1,42.3,42.5,38.9,34.1,75,51,24,29.93,29.69,12,3,17,0.00
2013-6-8,73.0,60.1,44.2,45.4,41.5,35.3,73,52,36,30.11,29.93,10,2,15,0.00
2013-6-9,76.3,63.5,46.0,47.5,42.5,38.6,79,50,28,30.20,30.11,10,2,13,0.00
2013-6-10,74.0,62.7,48.1,46.7,42.8,39.0,74,50,33,30.24,30.12,8,2,12,0.00
2013-6-11,74.0,61.8,44.5,47.6,42.8,37.3,78,52,32,30.14,29.98,11,2,14,0.00
2013-6-12,77.2,64.0,47.4,46.8,42.1,37.6,77,48,27,30.00,29.93,8,1,12,0.00
2013-6-13,67.7,54.5,44.4,48.1,42.8,37.1,77,65,49,30.18,29.96,7,1,12,0.00
2013-6-14,73.3,60.0,44.0,49.4,44.5,37.5,80,58,35,30.26,30.18,10,2,14,0.00
2013-6-15,72.8,60.4,44.0,50.8,46.8,39.1,83,62,43,30.33,30.23,9,1,10,0.00
2013-6-16,81.5,65.7,47.4,55.6,49.6,41.4,81,59,38,30.25,30.11,8,1,9,0.00
2013-6-17,83.2,69.8,52.7,54.5,50.7,45.9,79,53,36,30.13,29.86,7,1,9,0.00
2013-6-18,84.2,70.6,54.0,55.0,47.9,37.9,81,50,20,29.90,29.77,12,2,14,0.00
2013-6-19,75.0,65.8,53.0,48.5,43.6,39.1,68,46,31,29.97,29.90,15,3,22,0.00
2013-6-20,69.0,59.3,46.2,50.7,46.5,39.1,78,63,50,30.03,29.97,12,2,16,0.00
2013-6-21,55.1,52.3,49.3,48.2,44.7,41.2,82,75,63,30.12,30.04,8,1,12,0.00
2013-6-22,69.0,57.2,45.0,48.5,44.9,40.1,84,65,42,30.07,29.79,10,2,13,0.00
2013-6-23,69.3,59.6,45.8,47.9,44.9,39.9,81,60,44,29.79,29.63,7,1,10,0.00
2013-6-24,71.1,62.2,52.1,50.5,47.6,43.7,77,60,44,29.69,29.62,9,2,12,0.00
2013-6-25,76.7,63.2,47.6,52.5,48.4,41.9,82,60,41,29.64,29.60,12,1,15,0.00
2013-6-26,81.5,67.9,52.3,55.9,50.9,46.0,83,58,30,29.88,29.63,14,2,18,0.00
2013-6-27,67.2,62.3,56.4,54.6,51.9,48.6,77,69,56,30.09,29.88,8,2,12,0.00
2013-6-28,60.2,57.2,54.4,52.6,51.3,49.7,86,81,76,30.20,30.09,6,1,8,0.00
2013-6-29,65.3,59.2,54.1,53.7,51.9,50.3,89,77,64,30.16,30.00,5,1,7,0.00
2013-6-30,61.2,56.4,54.5,53.4,49.5,48.1,83,78,74,30.07,29.83,10,2,13,0.00
2013-7-1,56.9,53.8,50.7,50.7,48.7,47.3,90,83,74,29.84,29.61,9,2,13,0.02
2013-7-2,62.9,55.9,49.3,48.9,45.9,40.3,90,71,48,29.90,29.61,12,2,16,0.00
2013-7-3,61.9,55.1,49.2,48.6,44.9,39.6,83,70,49,30.03,29.90,11,2,16,0.00
2013-7-4,58.2,53.5,50.2,49.1,45.9,39.4,87,76,51,30.07,30.00,12,2,16,0.21
2013-7-5,61.2,54.7,48.8,49.6,47.6,45.4,89,78,61,30.09,30.03,7,2,9,0.10
2013-7-6,61.8,55.4,50.6,50.8,48.7,46.8,90,79,61,30.04,29.78,10,1,13,0.01
2013-7-7,68.0,56.5,51.1,52.3,48.7,43.3,91,77,45,29.78,29.59,14,2,21,0.01
2013-7-8,61.8,54.1,48.6,49.4,46.9,44.6,89,77,62,29.85,29.69,6,2,9,0.00
2013-7-9,66.1,57.4,50.2,50.5,47.9,45.7,88,72,52,30.05,29.85,10,2,15,0.01
2013-7-10,70.0,61.3,53.0,51.1,49.1,45.3,87,66,49,30.06,29.94,11,2,14,0.02
2013-7-11,75.8,64.7,53.5,52.8,49.9,46.6,80,60,40,29.96,29.91,10,2,16,0.00
2013-7-12,77.7,65.1,49.8,53.0,49.3,44.4,83,59,37,29.97,29.91,8,2,10,0.00
2013-7-13,71.3,64.8,56.5,52.5,50.0,47.9,75,59,47,30.19,29.97,9,2,13,0.00
2013-7-14,65.5,59.1,54.4,53.4,50.5,47.5,82,74,59,30.34,30.19,7,2,11,0.00
2013-7-15,61.5,57.1,49.5,52.3,49.8,44.6,84,77,71,30.37,30.26,6,1,9,0.00
2013-7-16,66.8,60.5,54.0,54.2,52.0,49.4,86,74,63,30.27,30.15,8,1,13,0.00
2013-7-17,71.4,64.3,57.0,58.0,54.7,51.8,84,71,62,30.16,30.08,12,2,15,0.00
2013-7-18,73.6,65.7,55.3,58.6,55.5,50.7,86,70,59,30.17,30.10,13,2,17,0.00
2013-7-19,72.6,66.6,60.9,56.3,52.7,50.1,74,61,52,30.20,30.13,13,4,19,0.00
2013-7-20,70.4,62.8,55.0,56.0,50.5,47.8,86,66,47,30.16,30.06,11,2,14,0.22
2013-7-21,76.0,63.7,46.1,49.9,45.2,40.3,82,54,32,30.08,29.94,15,3,18,0.00
2013-7-22,79.4,65.8,47.5,51.7,46.4,40.5,78,52,35,30.10,29.99,8,2,12,0.00
2013-7-23,78.9,66.3,52.8,53.2,49.0,43.6,76,55,38,30.12,30.04,7,1,10,0.00
2013-7-24,80.2,66.8,50.9,54.6,51.2,45.2,82,59,39,30.06,29.94,7,1,9,0.00
2013-7-25,76.4,66.5,59.5,59.6,55.0,50.1,82,67,53,30.08,29.96,10,1,15,0.02
2013-7-26,70.7,63.1,58.8,58.9,56.2,53.9,87,79,65,30.31,30.08,8,2,13,0.00
2013-7-27,70.7,63.7,59.6,57.5,55.1,52.7,83,74,62,30.37,30.31,6,1,8,0.00
2013-7-28,76.4,65.9,59.4,59.5,56.4,52.8,84,72,56,30.32,30.17,8,1,10,0.00
2013-7-29,74.5,65.0,54.3,57.8,55.0,49.6,88,71,55,30.21,30.14,6,1,10,0.00
2013-7-30,74.2,64.5,52.1,58.1,54.6,48.3,88,71,57,30.23,30.17,8,1,12,0.00
2013-7-31,72.0,63.0,51.9,57.2,53.6,48.3,88,72,57,30.23,30.14,7,1,10,0.00
2013-8-1,70.6,61.5,53.1,57.0,53.6,48.4,87,76,61,30.16,29.97,7,1,8,0.00
2013-8-2,71.5,61.7,50.0,56.3,51.6,45.4,89,71,51,30.01,29.80,8,2,12,0.00
2013-8-3,71.8,64.5,56.5,54.6,48.8,44.3,82,59,42,29.89,29.75,16,5,28,0.02
2013-8-4,65.8,61.3,55.8,52.4,50.0,44.8,79,67,50,29.97,29.89,8,1,10,0.00
2013-8-5,68.7,60.8,53.5,54.6,50.3,44.6,87,70,48,29.99,29.95,12,2,16,0.01
2013-8-6,65.8,60.1,53.3,52.5,50.4,46.3,82,71,58,29.98,29.91,6,1,8,0.00
2013-8-7,60.2,57.0,54.1,55.4,52.7,49.8,90,86,78,29.92,29.76,6,0,8,0.09
2013-8-8,64.3,57.7,54.0,55.9,51.5,46.6,92,80,64,29.84,29.74,10,2,14,0.03
2013-8-9,57.1,53.3,50.4,52.9,50.2,47.1,93,89,78,29.83,29.73,12,2,15,0.25
2013-8-10,60.8,54.9,50.5,55.8,52.3,48.3,94,91,83,30.01,29.77,6,0,8,0.27
2013-8-11,57.4,54.9,51.3,55.8,53.0,49.1,95,94,90,30.03,30.00,7,1,9,0.70
2013-8-12,66.8,59.8,55.4,59.4,56.5,54.0,96,89,76,30.06,30.02,8,1,9,0.32
2013-8-13,68.7,59.7,52.8,59.1,54.5,50.1,92,83,64,30.03,29.97,8,2,12,0.00
2013-8-14,59.4,56.5,54.2,52.5,50.7,49.3,87,81,73,30.05,29.91,6,1,9,0.00
2013-8-15,66.2,58.2,52.1,53.2,50.5,46.3,89,76,60,29.91,29.77,8,1,9,0.00
2013-8-16,58.8,53.8,46.7,54.3,49.8,43.3,90,86,79,29.78,29.66,5,0,6,0.06
2013-8-17,66.2,57.5,51.2,55.7,52.5,49.1,94,84,68,29.66,29.51,6,1,7,0.17
2013-8-18,59.7,57.1,54.7,57.1,54.8,52.3,94,92,88,29.66,29.49,4,0,5,0.56
2013-8-19,56.7,54.7,53.0,54.7,52.9,51.1,95,94,93,29.76,29.66,7,0,8,0.68
2013-8-20,60.0,54.8,51.2,55.1,52.6,49.6,95,93,83,29.85,29.76,6,0,8,0.19
2013-8-21,56.1,53.5,50.9,54.1,51.8,49.3,95,94,93,29.87,29.77,6,0,7,0.46
2013-8-22,55.2,53.3,51.2,53.6,52.0,49.6,96,95,94,29.77,29.70,5,0,6,0.46
2013-8-23,64.5,57.3,52.2,56.0,53.2,50.9,96,87,72,29.70,29.53,8,1,10,0.08
2013-8-24,67.9,56.7,49.5,52.2,49.3,44.1,95,78,48,29.70,29.57,7,1,10,0.03
2013-8-25,65.6,51.7,37.3,47.9,42.5,34.8,92,73,49,29.75,29.69,6,1,8,0.00
2013-8-26,63.5,53.0,40.2,49.6,44.8,37.3,91,75,55,29.77,29.73,6,1,9,0.00
2013-8-27,63.9,54.6,47.7,52.5,48.8,42.9,90,81,65,29.80,29.73,7,1,9,0.06
2013-8-28,61.0,55.5,50.7,51.5,49.7,47.8,91,81,67,29.74,29.58,7,2,10,0.45
2013-8-29,56.4,53.0,50.3,54.1,50.9,48.5,94,93,91,29.88,29.55,6,1,8,0.11
2013-8-30,59.7,54.7,49.8,53.9,51.4,47.8,95,89,78,29.97,29.88,9,1,11,0.02
2013-8-31,57.1,53.3,47.8,52.9,50.2,45.5,94,89,84,29.95,29.84,10,1,20,0.09
2013-9-1,57.2,53.5,50.6,52.3,50.6,48.7,94,90,83,29.86,29.72,7,1,9,0.05
2013-9-2,65.0,56.0,52.2,54.3,50.8,45.4,95,84,51,29.72,29.47,16,3,24,0.29
2013-9-3,65.8,55.5,51.6,53.0,49.7,47.0,88,81,59,29.55,29.27,14,3,20,0.13
2013-9-4,57.5,51.8,46.8,51.6,48.7,44.8,94,89,68,29.81,29.40,14,2,22,0.64
2013-9-5,61.5,50.9,39.9,50.5,43.8,38.6,95,79,51,30.03,29.81,11,2,18,0.00
2013-9-6,53.2,47.2,42.0,49.4,44.1,38.6,93,89,80,30.03,29.43,8,1,9,0.16
2013-9-7,58.2,52.1,47.6,52.7,49.3,45.5,95,90,81,29.66,29.48,10,1,12,0.10
2013-9-8,58.6,52.7,48.6,51.8,49.4,45.8,95,89,75,29.85,29.46,12,3,16,0.78
2013-9-9,58.2,51.9,47.6,50.8,47.7,45.1,93,86,72,29.85,29.65,14,2,17,0.01
2013-9-10,54.6,52.0,48.7,51.4,49.2,46.1,93,90,86,29.76,29.69,6,0,8,0.05
2013-9-11,58.2,52.5,47.0,52.1,49.2,45.5,95,89,76,29.91,29.61,9,1,13,0.49
2013-9-12,59.1,52.2,44.6,50.1,47.5,42.6,94,84,69,30.00,29.91,9,1,11,0.00
2013-9-13,57.1,51.8,47.2,50.8,48.3,45.3,94,88,78,29.96,29.90,8,1,9,0.14
2013-9-14,63.4,51.7,41.9,52.9,47.5,40.6,95,86,68,29.95,29.85,5,1,8,0.01
2013-9-15,61.5,48.3,38.0,46.1,41.3,35.9,94,78,56,29.89,29.71,7,1,9,0.00
2013-9-16,55.9,45.5,33.9,43.0,38.5,31.8,93,78,58,29.71,29.50,7,1,9,0.00
2013-9-17,52.6,47.8,44.1,46.3,43.9,41.3,92,87,78,29.53,29.47,6,1,8,0.03
2013-9-18,53.0,46.9,42.5,45.6,43.2,39.9,93,87,75,29.62,29.53,8,1,9,0.14
2013-9-19,49.5,43.2,37.8,43.8,37.1,31.3,95,81,52,29.59,29.42,8,2,10,0.27
2013-9-20,45.7,35.1,25.7,31.8,27.3,22.5,89,74,51,29.43,29.02,8,1,10,0.00
2013-9-21,44.9,36.7,28.2,37.2,31.0,24.6,90,80,68,29.02,28.94,8,2,12,0.01
2013-9-22,42.4,39.2,36.9,37.2,32.5,29.3,83,77,70,29.29,28.94,9,2,13,0.01
2013-9-23,43.9,35.9,29.6,35.5,31.5,26.6,92,84,71,29.77,29.29,9,1,12,0.15
2013-9-24,42.7,35.0,25.3,36.9,31.4,23.7,94,87,79,29.99,29.77,7,1,9,0.00
2013-9-25,49.0,43.5,38.6,45.9,41.3,35.3,96,92,82,29.82,29.45,12,2,18,0.47
2013-9-26,49.6,45.1,41.9,47.0,43.5,40.5,96,94,90,29.62,29.22,6,1,7,0.22
2013-9-27,51.7,45.4,41.4,45.3,42.5,38.9,96,90,77,29.22,28.98,8,1,9,0.00
2013-9-28,52.5,41.9,33.0,41.7,36.9,31.3,95,83,65,29.16,29.07,7,1,9,0.00
2013-9-29,50.4,41.1,30.7,36.0,33.1,28.0,90,74,56,29.34,29.13,8,2,12,0.00
2013-9-30,52.7,39.6,28.0,36.3,30.6,25.0,90,72,50,29.63,29.34,11,1,14,0.00
2013-10-1,49.5,39.3,28.7,36.9,31.4,25.3,88,74,54,29.81,29.63,6,0,8,0.02
2013-10-2,47.4,42.3,38.7,43.8,39.6,36.3,94,90,85,29.82,29.79,4,0,5,0.16
2013-10-3,48.6,42.6,38.2,43.8,40.1,35.3,96,91,81,29.79,29.45,7,2,9,0.00
2013-10-4,54.3,41.3,33.3,42.8,35.8,30.2,95,82,58,29.75,29.47,6,0,8,0.00
2013-10-5,48.6,38.9,30.5,42.3,35.2,28.1,92,87,78,29.79,29.69,4,0,6,0.00
2013-10-6,44.2,41.2,37.5,42.0,39.2,35.5,94,93,90,29.73,29.68,8,1,10,0.41
2013-10-7,48.7,42.9,36.1,41.0,38.1,33.5,93,83,72,29.87,29.70,9,2,12,0.00
2013-10-8,52.5,46.1,40.7,41.4,38.6,35.6,91,76,54,29.71,29.04,32,9,49,0.59
2013-10-9,50.4,43.5,33.9,38.9,34.6,25.3,88,72,48,29.72,29.09,15,6,18,0.00
2013-10-10,40.7,34.4,26.8,36.2,30.1,23.1,93,84,72,29.74,29.70,6,1,8,0.08
2013-10-11,46.7,40.8,36.8,42.7,38.4,35.1,95,91,78,29.88,29.73,14,2,17,0.08
2013-10-12,53.5,48.6,43.9,41.6,38.9,35.6,83,70,52,29.85,29.63,22,5,33,0.00
2013-10-13,53.7,44.0,37.2,42.0,38.3,33.5,91,81,49,29.68,29.41,24,4,35,0.16
2013-10-14,54.2,47.1,39.2,42.0,37.0,34.1,89,69,51,30.03,29.67,12,4,16,0.01
2013-10-15,59.3,53.8,50.0,41.2,37.9,34.6,65,55,50,30.09,29.99,21,8,35,0.00
2013-10-16,59.6,54.6,46.0,42.5,39.7,33.8,84,59,41,30.22,30.08,18,6,28,0.00
2013-10-17,51.2,46.9,43.7,44.1,41.7,38.7,92,82,66,30.15,29.78,16,3,26,0.11
2013-10-18,55.2,50.1,43.5,41.5,36.0,30.2,90,61,41,29.80,29.57,22,8,38,0.00
2013-10-19,54.6,49.8,42.5,40.1,34.4,30.6,80,56,44,29.65,29.35,22,8,31,0.00
2013-10-20,53.0,49.1,42.0,34.4,30.1,27.5,73,48,43,29.94,29.64,18,6,26,0.01
2013-10-21,47.9,40.3,31.3,39.1,34.3,27.7,90,79,67,30.04,29.93,7,1,9,0.03
2013-10-22,45.2,37.4,28.4,38.1,32.8,24.6,90,84,70,30.19,30.03,9,1,13,0.00
2013-10-23,38.9,30.8,23.7,31.2,27.1,19.8,94,86,70,30.06,29.75,6,0,7,0.00
2013-10-24,35.2,30.5,21.5,31.4,26.2,18.0,88,84,78,29.83,29.66,12,2,14,0.00
2013-10-25,47.1,36.3,28.3,36.3,31.5,25.4,91,83,65,30.17,29.71,12,1,15,0.00
2013-10-26,40.4,32.6,25.8,34.9,29.4,23.6,92,88,81,30.45,30.17,8,1,9,0.00
2013-10-27,42.0,37.5,33.1,40.0,34.8,30.2,96,90,72,30.31,29.57,21,3,25,0.51
2013-10-28,57.0,45.2,38.5,43.3,39.8,35.4,96,82,54,29.62,29.20,30,7,39,0.60
2013-10-29,50.2,43.0,32.5,37.6,33.1,27.0,84,68,56,29.57,29.36,20,3,29,0.00
2013-10-30,44.2,37.8,33.5,37.2,33.5,31.1,91,85,74,29.36,29.09,5,0,7,0.00
2013-10-31,42.8,39.0,34.6,40.3,36.5,31.3,93,91,87,29.62,29.16,7,1,9,0.10
2013-11-1,43.2,40.0,36.5,40.9,38.4,35.1,95,94,91,29.99,29.62,3,0,5,0.21
2013-11-2,42.2,39.3,37.7,39.1,37.3,34.1,95,93,79,30.00,29.80,11,2,13,0.02
2013-11-3,41.0,37.8,35.2,35.1,33.8,32.3,91,86,80,29.83,29.58,13,3,16,0.00
2013-11-4,38.4,33.8,30.1,33.7,31.1,28.3,94,90,83,29.58,29.28,6,0,7,0.00
2013-11-5,40.7,33.3,25.2,33.7,27.7,19.8,92,80,60,29.98,29.36,9,1,12,0.00
2013-11-6,29.7,22.4,17.4,23.0,18.1,14.5,89,83,73,30.06,29.92,4,0,6,0.00
2013-11-7,29.4,23.0,17.4,22.1,18.2,13.5,90,82,71,29.92,29.78,10,2,13,0.00
2013-11-8,27.9,18.5,13.4,20.8,14.4,9.7,89,84,74,30.22,29.87,4,0,5,0.00
2013-11-9,30.6,23.7,14.0,28.2,20.7,11.1,93,88,82,30.22,29.98,8,1,10,0.00
2013-11-10,36.4,32.9,30.2,35.2,31.7,27.8,96,95,92,29.98,29.74,8,1,10,0.43
2013-11-11,32.2,24.4,13.1,30.7,23.1,11.4,96,94,92,30.07,29.83,0,0,0,0.00
2013-11-12,17.5,9.4,3.5,15.2,7.4,1.5,93,91,90,30.14,30.05,0,0,0,0.00
2013-11-13,25.6,22.1,15.5,23.6,20.1,13.4,93,92,91,30.24,30.11,1,0,6,0.00
2013-11-14,33.7,28.6,22.4,31.9,27.2,20.1,96,94,92,30.12,29.87,10,0,12,0.00
2013-11-15,27.2,22.3,10.1,24.3,19.9,8.0,92,90,87,30.05,29.93,8,1,12,0.00
2013-11-16,23.1,15.7,8.4,17.2,11.9,5.9,92,85,75,30.22,29.99,8,2,12,0.00
2013-11-17,15.1,6.4,-2.3,9.9,2.5,-5.5,88,84,79,30.24,30.19,7,2,10,0.00
2013-11-18,7.6,-2.4,-7.1,4.1,-5.6,-10.6,88,86,84,30.21,30.14,4,0,5,0.00
2013-11-19,4.4,-3.9,-10.8,0.8,-7.2,-14.1,88,86,83,30.15,30.01,5,1,7,0.00
2013-11-20,2.9,-5.2,-12.1,-1.3,-8.5,-15.8,87,85,83,30.11,29.98,7,1,8,0.00
2013-11-21,16.2,2.5,-10.3,13.1,-0.9,-13.6,88,85,82,29.98,29.21,10,2,13,0.00
2013-11-22,30.5,23.2,15.4,28.9,20.2,12.2,95,88,72,29.47,29.07,20,5,26,0.00
2013-11-23,35.8,24.8,9.9,22.4,16.4,5.8,87,72,55,29.96,29.47,16,4,24,0.00
2013-11-24,37.4,29.1,22.2,26.3,24.0,20.3,93,82,59,30.04,29.96,9,2,13,0.00
2013-11-25,27.1,23.8,21.5,24.8,22.1,19.2,94,93,91,29.99,29.73,6,1,10,0.00
2013-11-26,30.2,27.3,24.5,27.5,25.4,22.4,94,92,90,29.88,29.78,3,0,4,0.00
2013-11-27,30.5,27.9,21.9,29.1,25.3,11.4,95,90,62,29.87,29.70,14,1,19,0.00
2013-11-28,22.5,11.3,-4.5,12.7,3.0,-9.1,83,69,59,29.99,29.71,12,2,16,0.00
2013-11-29,0.2,-6.3,-11.4,-3.2,-9.8,-15.6,86,84,82,30.16,29.99,6,0,7,0.00
2013-11-30,4.7,-6.6,-12.6,1.0,-10.0,-16.4,86,85,84,30.39,30.14,6,1,7,0.00
2013-12-1,5.5,-3.4,-8.0,2.4,-6.4,-11.7,88,86,85,30.58,30.38,5,0,6,0.00
2013-12-2,10.8,2.4,-3.5,7.9,-0.4,-7.0,89,88,86,30.72,30.56,5,0,6,0.00
2013-12-3,15.7,7.0,1.9,13.2,4.6,-1.2,91,89,88,30.73,30.54,2,0,2,0.00
2013-12-4,25.0,19.5,14.3,23.0,17.6,12.0,93,92,91,30.56,30.41,4,0,6,0.00
2013-12-5,31.5,28.3,24.6,29.9,26.9,22.5,96,94,93,30.53,30.40,6,0,7,0.00
2013-12-6,34.0,32.4,30.6,32.7,31.3,29.1,96,96,95,30.54,30.50,5,0,7,0.07
2013-12-7,33.9,32.8,31.9,32.7,31.8,30.6,97,96,96,30.50,30.44,3,0,5,0.13
2013-12-8,32.7,30.5,26.8,31.9,29.7,25.8,97,97,96,30.47,30.37,8,1,9,0.00
2013-12-9,31.0,28.9,25.8,29.8,27.9,24.8,96,96,95,30.38,30.21,5,0,6,0.00
2013-12-10,30.6,28.4,24.3,29.5,27.4,22.8,96,96,95,30.21,29.77,8,2,10,0.00
2013-12-11,24.4,16.0,6.3,23.1,13.9,4.2,95,91,88,29.77,29.39,6,2,9,0.00
2013-12-12,16.5,12.6,6.9,13.4,9.6,4.2,91,88,82,29.49,29.38,7,1,9,0.00
2013-12-13,19.0,14.4,11.3,16.9,11.8,7.7,92,89,86,29.49,28.84,10,1,13,0.00
2013-12-14,20.5,18.1,14.5,18.7,16.3,12.2,94,93,92,29.09,28.84,10,1,12,0.00
2013-12-15,18.2,12.1,-1.3,16.4,10.1,-3.9,93,91,88,29.91,29.09,9,0,10,0.00
2013-12-16,0.1,-5.7,-12.5,-2.7,-8.4,-15.6,89,88,86,30.12,29.92,0,0,0,0.00
2013-12-17,-6.2,-11.5,-14.3,-9.4,-14.5,-17.9,87,86,85,30.40,30.11,0,0,0,0.00
2013-12-18,6.9,-5.2,-14.6,4.4,-8.0,-17.9,90,87,85,30.40,29.80,0,0,0,0.00
2013-12-19,12.3,8.9,4.7,10.4,6.8,2.4,92,91,90,29.80,29.64,4,0,6,0.00
2013-12-20,22.6,16.9,11.3,21.0,15.2,9.2,94,93,92,29.72,29.65,0,0,0,0.00
2013-12-21,28.1,25.6,22.2,26.8,24.3,20.5,95,95,94,29.67,29.48,0,0,0,0.00
2013-12-22,30.1,26.6,20.9,28.9,24.9,16.2,96,93,81,29.73,29.36,10,1,12,0.00
2013-12-23,21.6,10.3,-6.8,16.8,4.5,-10.6,85,77,67,30.15,29.73,10,3,16,0.00
2013-12-24,0.0,-4.9,-11.2,-3.0,-8.0,-14.6,88,86,84,30.16,29.78,6,1,9,0.00
2013-12-25,-1.3,-7.6,-11.7,-4.6,-10.7,-15.5,87,86,85,29.78,29.71,4,0,5,0.00
2013-12-26,8.8,2.2,-5.1,6.4,-0.4,-7.8,90,89,87,29.78,29.68,2,0,3,0.00
2013-12-27,12.2,1.7,-7.1,9.6,-0.9,-10.3,90,89,87,29.97,29.78,7,1,10,0.00
2013-12-28,21.2,17.6,12.1,18.1,14.9,9.1,91,89,87,29.96,29.90,7,1,9,0.00
2013-12-29,19.7,16.9,12.8,17.5,14.8,10.2,93,91,90,29.95,29.69,6,0,8,0.00
2013-12-30,18.4,13.4,8.4,16.5,11.3,6.2,92,91,90,29.69,29.46,3,0,5,0.00
2013-12-31,21.7,16.3,7.8,18.8,14.1,5.4,93,91,90,29.65,29.25,8,1,9,0.00
2014-1-1,31.2,26.4,19.7,29.1,24.5,17.4,94,92,90,29.50,29.13,10,2,13,0.00
2014-1-2,32.9,29.2,23.3,31.6,27.9,21.5,96,95,93,30.06,29.50,7,0,8,0.00